www.pogodaiklimat.ru

Погода и климат >> Архив погоды >> Великобритания >> Мамблс


ПОГОДА в Мамблсе

  • Прогноз погоды в Мамблсе
  • Монитор погоды в Мамблсе

АРХИВ ПОГОДЫ в Мамблсе

Время (UTC), дата Ветер
(напр.,м/с)
 
Видим.   Явления Облачность Т
(С)
Тd
(С)
f
(%)
Тe
(С)
Тes
(С)
Комфортность P
(гПа)
Po
(гПа)
Тmin
(С)
Tmax
(С)
R
(мм)
R24
(мм)
S
(см)
13 15.09 ЮЗ 7 н/о н/о +17.4 +15.3 87 +16 +16 1026.5 1021.4
14 15.09 ЮЗ 7 н/о н/о +17.4 +15.4 88 +16 +16 1025.9 1020.7
15 15.09 ЮЗ 7 н/о н/о +17.6 +15.5 87 +17 +17 1025.4 1020.3
16 15.09 З 8 н/о н/о +17.2 +15.3 89 +16 +16 1025.1 1019.9
17 15.09 З 7 н/о н/о +17.2 +15.2 88 +16 +16 1024.8 1019.7
18 15.09 З 7 н/о н/о +16.5 +14.1 86 +15 +15 1024.6 1019.4 +17.9
19 15.09 З 6 н/о н/о +15.9 +14.1 89 +15 +15 1025.0 1019.8
20 15.09 З 4 н/о н/о +15.5 +14.0 91 +14 +14 1025.0 1019.8
21 15.09 З 4 н/о н/о +15.4 +14.0 91 +14 +14 1025.2 1020.0
22 15.09 З 4 н/о н/о +15.2 +14.1 93 +14 +14 1025.0 1019.8
23 15.09 З 3 н/о н/о +15.1 +14.5 96 +14 +14 1024.9 1019.7
00 16.09 З 4 н/о н/о +15.1 +14.6 97 +14 +14 1024.8 1019.6
01 16.09 З 4 н/о н/о +15.3 +14.7 96 +14 +14 1024.5 1019.3
02 16.09 З 5 н/о н/о +15.5 +15.1 97 +14 +14 1023.9 1018.7
03 16.09 З 6 н/о н/о +15.5 +15.2 98 +14 +14 1023.3 1018.1
04 16.09 З 4 н/о н/о +15.8 +15.5 98 +15 +15 1023.0 1017.8
05 16.09 З 5 н/о н/о +16.0 +15.6 97 +15 +15 1022.5 1017.3
06 16.09 З 5 н/о н/о +16.1 +15.4 96 +15 +15 1022.6 1017.4 +14.9
07 16.09 З 5 н/о н/о +16.2 +15.3 94 +15 +15 1022.6 1017.4
08 16.09 З 3 н/о н/о +16.4 +15.2 93 +16 +16 1023.0 1017.8
09 16.09 З 5 н/о н/о +16.8 +15.3 91 +16 +16 1023.4 1018.2
10 16.09 З 5 н/о н/о +17.0 +15.6 91 +16 +16 1023.5 1018.3
11 16.09 ЮЗ 6 н/о н/о +17.5 +15.7 89 +17 +17 1023.6 1018.5
12 16.09 З 4 н/о н/о +17.4 +16.4 94 +17 +17 1023.6 1018.5
13 16.09 ЮЗ 7 н/о н/о +17.1 +16.0 93 +16 +16 1023.4 1018.3
14 16.09 ЮЗ 6 н/о н/о +17.3 +16.7 96 +16 +16 1023.2 1018.0
15 16.09 З 4 н/о н/о +17.7 +16.2 91 +18 +18 1023.4 1018.2
16 16.09 З 3 н/о н/о +18.6 +16.4 87 +20 +20 1023.1 1018.0
17 16.09 СЗ 3 н/о н/о +19.7 +15.5 77 +22 +22 комфорт 1023.1 1018.0
18 16.09 СЗ 4 н/о н/о +18.5 +14.6 78 +19 +19 1023.1 1018.0 +20.0
19 16.09 СЗ 5 н/о н/о +16.0 +13.4 85 +15 +15 1023.7 1018.5
20 16.09 СЗ 5 н/о н/о +15.4 +12.7 84 +14 +14 1024.2 1019.1
21 16.09 С 4 н/о н/о +15.0 +12.6 86 +14 +14 1024.4 1019.2
22 16.09 С 5 н/о н/о +14.7 +12.6 87 +13 +13 1024.5 1019.3
23 16.09 С 4 н/о н/о +15.3 +13.2 87 +14 +14 1024.4 1019.2
00 17.09 С 3 н/о н/о +15.4 +12.6 83 +15 +15 1024.8 1019.6
01 17.09 С 3 н/о н/о +14.7 +12.0 84 +14 +14 1025.2 1020.0
02 17.09 СВ 4 н/о н/о +13.9 +11.2 84 +13 +13 1025.0 1019.8
03 17.09 СВ 6 н/о н/о +13.6 +10.4 81 +12 +12 1025.2 1019.9
04 17.09 С 3 н/о н/о +13.3 +10.5 83 +12 +12 1025.4 1020.2
05 17.09 С 4 н/о н/о +12.6 +9.8 83 +11 +11 1025.8 1020.5
06 17.09 С 5 н/о н/о +12.4 +8.7 78 +10 +10 1026.2 1020.9 +12.4
07 17.09 С 4 н/о н/о +12.3 +8.5 78 +11 +11 1026.9 1021.7
08 17.09 С 5 н/о н/о +13.0 +8.4 74 +11 +11 1027.4 1022.1
09 17.09 СВ 5 н/о н/о +14.2 +8.7 69 +13 +13 1027.5 1022.3
10 17.09 СВ 4 н/о н/о +15.1 +8.7 66 +14 +14 1027.6 1022.4
11 17.09 СВ 5 н/о н/о +15.8 +8.3 61 +15 +15 1027.6 1022.4
12 17.09 СВ 4 н/о н/о +16.9 +8.7 58 +16 +16 1027.4 1022.2
13 17.09 СВ 3 н/о н/о +17.5 +8.1 54 +18 +18 1027.0 1021.9
14 17.09 СВ 4 н/о н/о +17.9 +8.2 53 +18 +18 1026.9 1021.8
15 17.09 СВ 5 н/о н/о +18.1 +8.8 55 +18 +18 1026.6 1021.5
16 17.09 СВ 4 н/о н/о +18.2 +9.1 55 +18 +18 1026.5 1021.4
17 17.09 СВ 6 н/о н/о +17.9 +8.4 54 +17 +17 1026.6 1021.5
18 17.09 В 4 н/о н/о +16.6 +10.8 69 +16 +16 1026.7 1021.5 +18.3
19 17.09 В 2 н/о н/о +15.4 +11.5 78 +15 +15 1027.6 1022.3
20 17.09 СВ 5 н/о н/о +15.4 +10.0 70 +14 +14 1027.9 1022.6
21 17.09 СВ 5 н/о н/о +14.5 +9.8 73 +13 +13 1028.4 1023.1
22 17.09 С 5 н/о н/о +13.5 +9.4 76 +12 +12 1028.9 1023.6
23 17.09 С 4 н/о н/о +13.2 +8.3 72 +12 +12 1028.8 1023.6
00 18.09 С 6 н/о н/о +13.0 +8.9 76 +11 +11 1028.9 1023.7
01 18.09 С 5 н/о н/о +12.6 +8.8 78 +10 +10 1029.2 1023.9
02 18.09 С 4 н/о н/о +12.5 +8.7 78 +11 +11 1029.3 1024.0
03 18.09 СВ 6 н/о н/о +12.4 +8.7 78 +10 +10 1029.3 1024.0
04 18.09 СВ 6 н/о н/о +11.9 +8.1 78 +9 +9 1029.2 1023.9
05 18.09 СВ 5 н/о н/о +11.8 +8.3 79 +9 +9 1029.6 1024.3
06 18.09 СВ 4 н/о н/о +11.6 +8.6 82 +10 +10 1029.9 1024.6 +11.3
07 18.09 С 4 н/о н/о +12.2 +9.0 81 +10 +10 1030.4 1025.1
08 18.09 СВ 4 н/о н/о +13.7 +9.1 74 +12 +12 1030.9 1025.6
09 18.09 В 5 н/о н/о +15.5 +9.7 68 +14 +14 1031.3 1026.1
10 18.09 В 4 н/о н/о +16.8 +9.9 64 +16 +16 1031.4 1026.2
11 18.09 ЮВ 4 н/о н/о +15.1 +8.9 66 +14 +14 1031.6 1026.3
12 18.09 ЮВ 3 н/о н/о +16.0 +9.4 65 +16 +16 1031.4 1026.2
13 18.09 ЮВ 2 н/о н/о +16.9 +9.1 60 +17 +17 1031.1 1025.9
14 18.09 Ю 3 н/о н/о +18.2 +9.7 58 +19 +19 1030.7 1025.5
15 18.09 ЮЗ 3 н/о н/о +18.7 +9.5 55 +19 +19 1030.3 1025.1
16 18.09 ЮЗ 5 н/о н/о +17.4 +9.3 59 +17 +17 1029.9 1024.8
17 18.09 ЮЗ 4 н/о н/о +17.6 +10.0 61 +17 +17 1029.9 1024.8
18 18.09 ЮЗ 3 н/о н/о +16.5 +10.0 65 +16 +16 1030.1 1024.9 +19.1
19 18.09 ЮЗ 2 н/о н/о +15.4 +10.2 71 +16 +16 1030.5 1025.2
20 18.09 ЮЗ 1 н/о н/о +15.4 +10.3 72 +16 +16 1030.9 1025.7
21 18.09 Ю 1 н/о н/о +15.1 +10.7 75 +16 +16 1031.0 1025.8
22 18.09 СВ 3 н/о н/о +13.9 +11.3 84 +13 +13 1031.3 1026.0
23 18.09 С 4 н/о н/о +13.5 +10.9 84 +12 +12 1031.3 1026.0
00 19.09 СВ 5 н/о н/о +13.2 +9.8 80 +11 +11 1031.5 1026.2
01 19.09 СВ 4 н/о н/о +13.2 +10.0 81 +12 +12 1031.5 1026.2
02 19.09 СВ 3 н/о н/о +13.5 +9.5 77 +12 +12 1031.4 1026.2
03 19.09 С 4 н/о н/о +12.7 +9.6 81 +11 +11 1031.3 1026.0
04 19.09 СВ 5 н/о н/о +12.7 +9.6 81 +11 +11 1031.0 1025.8
05 19.09 СВ 4 н/о н/о +12.8 +8.7 76 +11 +11 1031.1 1025.8
06 19.09 СВ 5 н/о н/о +12.3 +8.8 79 +10 +10 1031.3 1026.1 +12.3
07 19.09 С 4 н/о н/о +13.2 +9.1 76 +12 +12 1031.8 1026.5
08 19.09 СВ 4 н/о н/о +14.0 +9.1 72 +13 +13 1032.2 1026.9
09 19.09 СВ 3 н/о н/о +15.9 +9.8 67 +15 +15 1032.6 1027.3
10 19.09 В 2 н/о н/о +17.4 +10.4 63 +18 +18 1032.5 1027.3
11 19.09 ЮВ 3 н/о н/о +17.0 +10.9 67 +17 +17 1032.2 1027.0
12 19.09 ЮВ 4 н/о н/о +17.3 +11.8 70 +17 +17 1032.3 1027.1
13 19.09 ЮВ 4 н/о н/о +18.4 +11.1 62 +19 +19 1031.7 1026.5
14 19.09 ЮВ 4 н/о н/о +18.2 +9.9 58 +18 +18 1031.2 1026.1
15 19.09 ЮВ 3 н/о н/о +18.2 +10.8 62 +19 +19 1030.8 1025.6
16 19.09 Ю 2 н/о н/о +19.1 +10.8 59 +21 +21 комфорт 1030.2 1025.0
17 19.09 Ю 1 н/о н/о +18.6 +10.9 61 +20 +20 1030.0 1024.8
18 19.09 ЮВ 1 н/о н/о +17.6 +11.0 65 +19 +19 1029.8 1024.6 +19.4
19 19.09 СВ 2 н/о н/о +17.3 +11.2 67 +18 +18 1029.8 1024.6
20 19.09 С 4 н/о н/о +16.5 +12.2 76 +16 +16 1029.6 1024.4
21 19.09 С 4 н/о н/о +15.4 +12.0 80 +14 +14 1029.6 1024.4
22 19.09 С 5 н/о н/о +15.2 +12.0 81 +14 +14 1029.3 1024.1
23 19.09 СВ 6 н/о н/о +15.4 +11.6 78 +14 +14 1028.8 1023.5
00 20.09 СВ 5 н/о н/о +14.6 +11.9 84 +13 +13 1028.9 1023.6
01 20.09 В 8 н/о н/о +15.3 +12.3 82 +13 +13 1028.7 1023.5
02 20.09 В 7 н/о н/о +14.8 +12.5 86 +13 +13 1028.3 1023.1
03 20.09 В 8 н/о н/о +14.9 +12.3 84 +13 +13 1027.8 1022.5
04 20.09 В 10 н/о н/о +14.5 +11.9 84 +12 +12 1027.0 1021.8
05 20.09 В 10 н/о н/о +13.9 +10.9 82 +11 +11 1026.4 1021.2
06 20.09 В 11
{13}
н/о н/о +13.8 +11.2 84 +11 +11 1026.0 1020.7 +13.7
07 20.09 В 11
{14}
н/о н/о +14.3 +11.0 81 +11 +11 1025.8 1020.6
08 20.09 В 10
{13}
н/о н/о +15.3 +11.4 78 +13 +13 1025.7 1020.5
09 20.09 В 11
{14}
н/о н/о +15.9 +11.9 77 +14 +14 1025.2 1020.0
10 20.09 В 11
{14}
н/о н/о +16.8 +12.0 73 +15 +15 1024.6 1019.5
11 20.09 В 11
{15}
н/о н/о +17.3 +11.6 69 +16 +16 1023.9 1018.8
12 20.09 В 11
{15}
н/о н/о +17.7 +11.5 67 +16 +16 1023.2 1018.1
13 20.09 В 11
{14}
н/о н/о +18.6 +11.2 62 +18 +18 1022.5 1017.4
14 20.09 В 11
{14}
н/о н/о +18.7 +10.5 59 +18 +18 1021.0 1015.8
15 20.09 В 11
{15}
н/о н/о +19.0 +11.0 60 +19 +19 1019.9 1014.8
16 20.09 В 11
{14}
н/о н/о +19.2 +10.4 57 +19 +19 1018.9 1013.8
17 20.09 В 11
{14}
н/о н/о +19.0 +10.1 56 +19 +19 1017.8 1012.7
18 20.09 В 10
{13}
н/о н/о +18.7 +10.7 60 +18 +18 1017.2 1012.1 +19.3
19 20.09 В 8
{13}
н/о н/о +18.3 +9.3 56 +18 +18 1017.3 1012.2
20 20.09 ЮВ 10
{13}
н/о н/о +18.1 +8.1 52 +17 +17 1017.2 1012.1
21 20.09 В 9
{13}
н/о н/о +17.1 +7.9 55 +16 +16 1016.7 1011.6
22 20.09 В 13
{16}
н/о н/о +16.9 +8.1 56 +15 +15 1016.0 1010.9
23 20.09 В 13
{16}
н/о н/о +15.8 +9.1 64 +13 +13 1015.3 1010.2
00 21.09 В 13
{16}
н/о н/о +15.5 +9.6 68 +13 +13 1014.7 1009.5
01 21.09 В 12
{15}
н/о н/о +15.5 +9.2 66 +13 +13 1013.9 1008.7
02 21.09 В 10
{15}
н/о н/о +15.2 +9.2 67 +13 +13 1013.3 1008.1
03 21.09 В 8
{13}
н/о н/о +15.3 +9.6 69 +13 +13 1012.8 1007.7
04 21.09 В 10
{13}
н/о н/о +15.1 +9.4 69 +13 +13 1012.1 1006.9
05 21.09 В 12
{16}
н/о н/о +15.4 +9.4 67 +13 +13 1011.4 1006.3
06 21.09 В 10
{15}
н/о н/о +15.4 +9.3 67 +13 +13 1011.2 1006.0 +15.0
07 21.09 В 12
{16}
н/о н/о +15.9 +9.9 68 +14 +14 1010.1 1005.0
08 21.09 В 14
{18}
н/о н/о +16.4 +10.2 67 +14 +14 1009.7 1004.6
09 21.09 В 14
{19}
н/о н/о +17.2 +10.6 65 +15 +15 1009.1 1004.0
10 21.09 В 13
{19}
н/о н/о +17.9 +10.8 63 +16 +16 1008.8 1003.8
11 21.09 В 13
{16}
н/о н/о +18.8 +11.7 63 +18 +18 1008.3 1003.2
12 21.09 В 11
{16}
н/о н/о +19.8 +13.1 65 +21 +21 комфорт 1007.9 1002.8
13 21.09 В 12
{15}
н/о н/о +20.4 +13.6 65 +22 +22 комфорт 1007.1 1002.1
14 21.09 В 8
{14}
н/о н/о +20.9 +14.5 67 +23 +23 комфорт 1007.1 1002.1
15 21.09 В 9 н/о н/о +20.8 +14.8 69 +23 +23 комфорт 1006.3 1001.3
16 21.09 ЮВ 11
{13}
н/о н/о +20.1 +15.4 74 +22 +22 комфорт 1006.1 1001.1
17 21.09 В 9 н/о н/о +19.3 +16.1 82 +20 +20 1005.5 1000.5
18 21.09 ЮВ 7 н/о н/о +19.3 +16.1 82 +20 +20 1005.5 1000.5 +21.3 0.2
19 21.09 ЮВ 11
{13}
н/о н/о +19.0 +15.9 82 +19 +19 1005.2 1000.2
20 21.09 В 9 н/о н/о +18.6 +15.2 81 +18 +18 1004.8 999.7
21 21.09 В 10
{13}
н/о н/о +18.2 +15.0 82 +17 +17 1005.0 999.9
22 21.09 В 8 н/о н/о +17.7 +15.5 87 +17 +17 1004.3 999.3
23 21.09 В 8 н/о н/о +17.9 +14.9 83 +17 +17 1003.7 998.7
00 22.09 В 9 н/о н/о +18.0 +14.9 82 +17 +17 1002.9 997.9 0.2
01 22.09 В 9 н/о н/о +18.0 +14.9 82 +17 +17 1002.4 997.4
02 22.09 В 6 н/о н/о +18.0 +15.1 83 +17 +17 1001.6 996.6
03 22.09 В 12
{14}
н/о н/о +17.9 +15.1 84 +16 +16 1001.1 996.0
04 22.09 ЮВ 10
{13}
н/о н/о +18.1 +16.0 88 +17 +17 1000.5 995.4
05 22.09 ЮВ 9 н/о н/о +17.9 +16.1 89 +17 +17 1000.4 995.4
06 22.09 Ю 3 н/о н/о +17.1 +14.9 87 +17 +17 1000.7 995.7 +17.0 0.6
07 22.09 Ю 5 н/о н/о +17.4 +14.8 85 +17 +17 1000.9 995.8
08 22.09 ЮВ 6 н/о н/о +17.2 +14.9 86 +16 +16 1001.7 996.7
09 22.09 ЮВ 6 н/о н/о +17.3 +14.9 86 +16 +16 1001.6 996.5
10 22.09 ЮВ 7 н/о н/о +16.7 +14.9 89 +15 +15 1001.8 996.8
11 22.09 ЮВ 7 н/о н/о +17.1 +14.9 87 +16 +16 1001.6 996.5
12 22.09 ЮВ 5 н/о н/о +16.8 +15.5 92 +16 +16 1001.8 996.7 2
13 22.09 ЮВ 4 н/о н/о +18.3 +14.7 80 +19 +19 1001.7 996.6

 

Местоположение метеостанции Мамблс (Великобритания): широта 51.57 долгота -3.98 высота над уровнем моря 32 м.

В архиве по умолчанию представлена погода в Мамблсе за последнюю неделю. Архивные данные за месяц целиком и за предыдущие месяцы, начиная с января 2011 года, Вы можете получить, выбрав интересующий диапазон дат из раскрывающегося списка и нажав кнопку "Ввод!".


*Определитесь, кто Вы:
робот инопланетянин человек

Внимание! Время в таблицах - всемирное. Для получения местного времени необходимо прибавить поправку, которая равна 0 ч.

Смотрите также архив погоды в соседних городах и на ближайших метеорологических станциях:

Погода в Пембри Сэндс (Великобритания) (32 км)
Погода в Сейнт Атан (Великобритания) (43 км)
Погода на Базе Chivenor (Великобритания) (56 км)
Погода в Лискомбе (Великобритания) (61 км)
Погода в Сеннибридже (Великобритания) (61 км)
Погода в Аберпорте (Великобритания) (74 км)
Погода в Милфорд-Хейвен (Великобритания) (75 км)
Погода в Троскоеде (Великобритания) (87 км)
Погода в Данкесуэлле (Великобритания) (94 км)
Погода в Филтоне (Великобритания) (97 км)

Пояснения к столбцам:

Ветер - указаны скорость ветра в м/с - средняя за 10 мин, порывы в срок и между сроками (в фигурных скобках) и направление, откуда дует ветер: С - северный, СВ - северо-восточный, В - восточный, ЮВ - юго-восточный, Ю - южный, ЮЗ - юго-западный, З - западный, СЗ - северо-западный.
Видимость - горизонтальная дальность видимости в метрах или километрах. При видимости от 1 до 10 км при отсутствии осадков обычно наблюдается дымка, при ухудшении видимости до 1 км и менее - туман. В сухую погоду видимость может ухудшаться дымом, пылью или мглою.
Явления - указаны атмосферные явления, наблюдавшиеся в срок или в последний час перед сроком; фигурными скобками обозначены явления, наблюдавшиеся между сроками (за 1-3 часа до срока); квадратными скобками обозначены град или гололедные отложения с указанием их диаметра в мм.
Облачность - указаны через наклонную черту общая и нижняя облачность в баллах и высота нижней границы облаков в метрах; квадратными скобками обозначены формы облаков: Ci - перистые, Cs - перисто-слоистые, Cc - перисто-кучевые, Ac - высококучевые, As - высокослоистые, Sc - слоисто-кучевые, Ns - слоисто-дождевые, Cu - кучевые, Cb - кучево-дождевые. Подробнее классификацию облаков см. в Атласе облаков (PDF).
T - Температура воздуха - температура, измеренная на высоте 2 м над землей.
Td - Температура точки росы - температура, при понижении до которой содержащийся в воздухе водяной пар достигнет насыщения.
f - Относительная влажность воздуха - влажноcть воздуха, измеренная на высоте 2 м над землей.
Te - Эффективная температура - температура, которую ощущает одетый по сезону человек в тени. Характеристика душности погоды. При расчете учитывается влияние влажности воздуха и скорости ветра на теплоощущения человека.
Tes - Эффективная температура на солнце - температура, которую ощущает человек, с поправкой на солнечный нагрев. Характеристика знойности погоды. Зависит от высоты солнца над горизонтом, облачности и скорости ветра. Ночью, в пасмурную погоду, а также при ветре 12 м/с и более поправка равна нулю.
P - Атмосферное давление - приведенное к уровню моря атмосферное давление.
Po - Атмосферное давление - измеренное на уровне метеостанции атмосферное давление.
Tmin - Минимальная температура - минимум температуры воздуха на высоте 2 м над землей.
Tmax - Максимальная температура - максимум температуры воздуха на высоте 2 м над землей.
R - Количество осадков - Количество выпавших осадков за период времени, мм. При наведении курсора мыши на число - период времени, за который выпало указанное количество осадков.
R24 - Количество осадков - Количество выпавших осадков за 24 часа, мм.
S - Снежный покров - Высота снежного покрова, см. При наведении курсора мыши на число - состояние снежного покрова и степень покрытия местности в баллах.